Lid_Strength_Index
1 1 1 1 1 1 1 1 1 2 2 2 2 3 4 4 5 9 12 12 13 15 15 13 14 15 15 16 18 16 16 16 17 19 19 19 20 19 21 20 20 20 21 21 20 22 24 15 16 18 16 16 15 15
2 2 2 1 1 1 1 1 1 2 2 2 2 2 3 4 5 7 12 11 12 15 14 12 12 12 13 13 15 16 17 16 15 18 18 18 18 19 19 21 19 21 18 20 18 19 16 15 15 14 15 16 15 16
3 3 3 3 2 2 2 1 1 2 2 3 3 2 3 4 5 7 11 12 13 15 15 15 14 12 12 12 12 15 15 14 14 14 15 16 18 17 19 20 19 17 16 18 18 16 14 14 14 14 14 14 13 14
4 3 4 4 4 4 4 3 3 3 2 2 3 3 4 4 5 6 9 11 13 15 18 15 13 14 13 13 12 12 13 13 13 14 16 17 17 15 18 17 18 16 16 17 16 14 14 13 13 13 13 13 14 14
5 4 4 5 4 4 4 4 4 4 3 4 4 4 4 4 5 6 8 10 10 14 17 16 14 15 14 14 14 14 13 14 15 16 18 17 16 16 16 17 16 14 15 17 17 14 14 13 13 14 14 14 13 14
5 5 5 4 5 5 4 4 4 4 5 5 5 5 4 4 5 9 12 11 11 12 17 17 14 16 15 15 14 15 14 15 15 16 18 16 15 16 19 20 15 14 14 14 14 13 13 12 13 13 13 12 13 14
5 5 5 5 5 4 5 5 5 5 5 5 5 4 5 4 7 9 11 10 9 11 14 16 17 16 15 15 15 15 15 16 16 16 16 17 16 15 17 18 15 14 14 13 13 14 14 13 14 12 13 13 12 13
5 5 5 5 4 5 5 5 5 5 5 5 5 5 5 4 6 8 8 8 9 12 14 16 17 16 15 17 17 16 16 14 15 15 15 16 16 15 17 15 14 14 14 14 13 13 14 13 13 13 14 14 14 14
5 4 5 5 4 5 5 5 5 5 5 5 4 5 7 8 10 10 7 8 10 12 15 16 20 18 16 17 16 16 15 17 16 16 16 15 17 18 17 16 15 14 15 14 13 13 14 15 14 14 14 14 14 14
5 4 4 5 4 5 5 5 5 5 5 5 8 10 13 10 7 8 11 13 13 13 14 16 16 17 16 17 17 18 17 17 19 17 16 17 18 15 14 14 14 14 14 15 18 17 15 14 15 14 13 14 14 14
5 4 4 4 4 5 5 5 5 5 5 8 10 12 10 7 10 12 14 15 15 16 14 15 15 15 14 15 15 14 18 17 20 18 18 18 20 17 15 15 14 14 14 15 15 14 14 15 15 13 13 13 13 14
4 4 4 4 4 4 5 5 5 8 9 9 9 9 10 12 13 14 15 15 16 18 16 16 15 14 14 13 15 14 17 17 20 17 19 21 15 14 14 14 13 14 14 13 13 13 13 12 12 12 12 13 14 15
4 4 4 4 4 4 5 5 5 5 7 8 11 13 13 15 17 18 20 19 19 17 17 17 18 15 15 13 14 15 17 18 17 19 20 16 13 13 13 13 13 12 11 12 12 11 11 12 11 11 11 10 12 12
4 4 4 4 4 4 4 4 4 5 9 15 16 21 17 21 17 18 19 19 16 16 15 15 17 15 14 15 14 17 16 16 22 24 21 15 14 12 12 11 11 11 11 11 11 11 11 10 10 11 12 12 12 12
4 4 4 4 4 4 4 3 3 7 10 13 14 18 20 17 20 18 17 17 15 12 12 14 13 12 12 14 13 14 15 18 20 20 16 14 13 11 11 10 10 11 11 10 10 10 9 10 10 10 11 11 12 12
3 4 5 4 3 2 2 2 5 6 9 10 12 16 14 15 14 14 16 12 12 11 10 10 12 11 12 12 15 16 18 21 17 16 14 14 12 11 10 9 10 9 9 9 9 9 9 10 10 9 11 12 11 12
2 6 2 2 1 1 1 4 7 8 9 11 13 11 16 18 17 14 12 12 10 9 11 12 12 15 16 15 15 15 19 16 13 12 12 12 11 9 8 9 9 9 9 8 9 8 9 9 11 14 13 10 12 12
5 5 1 1 1 2 3 4 7 10 12 12 13 13 11 12 13 12 12 11 11 11 12 13 13 16 17 19 15 14 12 10 9 10 9 9 9 9 9 9 9 9 9 9 9 9 9 10 11 10 10 10 12 13
4 4 2 1 1 4 7 7 7 11 13 16 13 14 13 12 11 9 10 10 9 11 10 11 15 18 14 11 10 10 11 11 10 9 9 9 8 8 8 9 9 9 9 9 9 9 8 8 8 9 9 10 11 10
1 1 1 0 1 5 8 7 7 9 12 13 15 12 12 12 10 11 10 10 9 10 12 13 12 10 9 8 7 7 8 8 8 10 10 9 8 8 9 9 8 8 8 8 7 6 7 8 9 10 10 10 11 11
1 2 0 1 4 4 6 7 7 8 12 14 11 10 15 16 12 11 11 9 14 16 16 11 9 7 6 6 5 6 6 6 7 8 8 9 7 7 8 7 7 7 8 8 8 7 7 8 8 8 9 9 9 10
3 -0 5 3 6 5 6 5 7 7 8 9 14 15 20 17 11 11 14 14 16 10 9 8 7 6 6 6 5 5 5 5 6 6 5 6 7 8 7 7 7 7 7 7 7 8 7 7 7 8 9 10 9 10
0 1 4 4 7 8 11 5 7 8 9 10 12 16 17 18 16 12 14 14 11 7 6 6 6 5 6 5 5 5 5 5 6 6 6 6 5 5 6 6 6 7 7 7 6 7 7 6 7 7 8 9 10 10
-0 4 6 7 7 9 7 8 8 9 8 10 11 11 16 17 16 14 14 10 8 6 7 6 6 6 6 6 7 6 5 5 5 6 5 6 6 6 5 6 6 5 6 6 6 7 7 8 7 8 9 10 9 9
7 7 7 9 7 8 9 11 11 14 13 14 11 15 15 15 12 15 17 14 11 8 7 6 6 6 7 7 7 6 5 5 6 7 6 5 6 6 7 6 6 5 6 7 7 8 8 8 9 10 10 10 10 9
10 8 9 11 12 11 11 13 13 13 16 21 16 13 17 13 16 17 15 9 7 7 7 7 7 8 8 7 7 7 6 5 5 6 5 5 6 6 7 7 8 7 5 6 7 8 8 8 9 9 9 9 8 9
10 11 9 6 7 8 11 12 11 13 15 13 15 17 14 14 14 14 11 9 7 7 7 6 6 7 7 7 6 6 5 5 5 5 4 4 4 5 6 7 8 7 6 8 8 9 9 9 9 9 10 9 10 11
11 12 11 11 10 11 11 12 12 13 11 11 12 14 14 14 13 10 10 11 7 6 6 8 7 6 6 6 5 6 5 5 5 5 7 8 8 7 6 6 7 6 7 7 8 9 9 9 9 10 11 11 11 14
11 10 11 13 14 13 12 13 13 12 10 11 12 11 12 10 6 10 7 9 13 13 13 9 7 7 8 7 6 6 6 6 8 10 10 10 9 7 8 10 9 8 9 11 8 7 10 11 11 12 12 13 16 18
10 10 14 16 14 13 10 10 12 7 7 7 7 7 8 7 6 8 11 12 12 10 7 6 6 6 7 7 7 6 6 6 7 8 10 10 9 7 9 10 12 11 15 15 13 14 9 14 14 17 17 17 18 18
12 12 16 15 13 9 8 9 12 8 13 13 11 10 8 7 6 6 6 5 5 6 7 7 7 6 6 7 7 7 7 6 6 7 8 7 7 7 7 7 8 14 16 15 15 14 16 18 16 18 18 18 17 18
13 12 13 17 12 8 16 17 17 15 14 13 9 8 8 12 10 8 5 5 6 7 6 6 7 7 5 5 5 5 4 5 5 6 11 9 8 8 8 9 12 15 15 14 14 15 18 15 15 17 18 18 18 19
19 20 19 16 16 16 18 13 16 16 19 14 10 9 9 9 11 8 8 7 5 6 7 6 6 6 6 6 6 5 4 6 6 5 4 5 5 6 10 11 13 14 15 14 15 15 16 15 16 17 17 18 19 19